CW4185 Weather Reports


time (UTC)temp
C
wind
direction
speed
KPH
gust
KPH
rain 1hr
cm
rain 24hr
cm
rain mn
cm
humidity
%
barometer
mb
20260508081146 22 63 6.4 8.0 0.00 0.00 0.00 88 1012.9
20260508080646 22 65 4.8 8.0 0.00 0.00 0.00 89 1012.9
20260508080147 22 50 4.8 8.0 0.00 0.00 0.00 88 1012.9
20260508075648 22 80 4.8 6.4 0.00 0.00 0.00 88 1012.9
20260508075149 22 58 4.8 11.3 0.00 0.00 0.00 88 1013.2
20260508074646 22 47 8.0 9.7 0.00 0.00 0.00 88 1013.2
20260508074147 22 37 3.2 6.4 0.00 0.00 0.00 88 1013.2
20260508073648 22 7 4.8 12.9 0.00 0.00 0.00 88 1012.9
20260508073151 22 39 6.4 9.7 0.00 0.00 0.00 89 1012.9
20260508072646 22 64 6.4 11.3 0.00 0.00 0.00 89 1012.9
20260508072147 22 74 4.8 9.7 0.00 0.00 0.00 89 1012.5
20260508071646 22 61 3.2 6.4 0.00 0.00 0.00 88 1012.5
20260508071147 22 36 3.2 9.7 0.00 0.00 0.00 88 1012.9
20260508070646 22 44 3.2 8.0 0.00 0.00 0.00 88 1012.9
20260508070148 22 51 4.8 9.7 0.00 0.00 0.00 88 1012.9
20260508065646 22 37 3.2 9.7 0.00 0.00 0.00 88 1012.9
20260508065149 22 38 1.6 6.4 0.00 0.00 0.00 88 1012.9
20260508064650 22 10 4.8 9.7 0.00 0.00 0.00 88 1013.2
20260508064151 22 358 4.8 6.4 0.00 0.00 0.00 87 1013.2
20260508063649 22 35 0.0 6.4 0.00 0.00 0.00 88 1012.9
20260508063150 22 29 3.2 4.8 0.00 0.00 0.00 88 1013.2
20260508062646 22 67 6.4 6.4 0.00 0.00 0.00 88 1013.2
20260508062150 22 25 3.2 6.4 0.00 0.00 0.00 87 1013.2
20260508061646 22 24 1.6 6.4 0.00 0.00 0.00 88 1013.5
20260508061150 22 69 3.2 6.4 0.00 0.00 0.00 88 1013.2
20260508060649 22 64 4.8 6.4 0.00 0.00 0.00 88 1013.5
20260508060148 22 48 3.2 8.0 0.00 0.00 0.00 88 1013.2
20260508055646 22 22 3.2 8.0 0.00 0.00 0.00 88 1013.5
20260508055147 22 54 4.8 4.8 0.00 0.00 0.00 88 1013.5
20260508054648 22 22 6.4 8.0 0.00 0.00 0.00 87 1013.5
20260508054146 22 57 4.8 9.7 0.00 0.00 0.00 88 1013.5
20260508053650 22 26 4.8 8.0 0.00 0.00 0.00 88 1013.9
20260508053150 22 51 8.0 11.3 0.00 0.00 0.00 88 1013.5
20260508052648 22 43 8.0 12.9 0.00 0.00 0.00 88 1013.5
20260508052149 22 45 6.4 12.9 0.00 0.00 0.00 88 1013.5
20260508051647 22 71 9.7 11.3 0.00 0.00 0.00 88 1013.9
20260508051150 22 45 3.2 8.0 0.00 0.00 0.00 87 1013.9
20260508050649 22 34 1.6 4.8 0.00 0.00 0.00 87 1013.9
20260508050149 22 32 8.0 8.0 0.00 0.00 0.00 88 1013.9
20260508045647 22 66 3.2 8.0 0.00 0.00 0.05 88 1013.9
20260508044719 22 40 3.2 9.7 0.00 0.00 0.05 88 1013.9
20260508044147 22 47 4.8 8.0 0.00 0.00 0.05 89 1013.9
20260508043647 22 59 8.0 11.3 0.00 0.00 0.05 88 1014.2
20260508043149 22 39 4.8 9.7 0.00 0.00 0.05 87 1014.2
20260508042647 22 51 4.8 8.0 0.00 0.00 0.05 88 1014.2
20260508042147 22 62 4.8 14.5 0.00 0.00 0.05 88 1014.2
20260508041647 22 358 4.8 14.5 0.00 0.00 0.05 88 1014.2
20260508041146 22 28 4.8 11.3 0.00 0.00 0.05 87 1014.2
20260508040650 22 359 6.4 11.3 0.00 0.00 0.05 87 1014.2
20260508040148 22 358 6.4 9.7 0.00 0.00 0.05 88 1014.2
20260508035646 22 56 9.7 16.1 0.00 0.00 0.05 87 1014.2
20260508035147 22 30 9.7 12.9 0.00 0.00 0.05 87 1014.6
20260508034648 22 45 6.4 14.5 0.00 0.00 0.05 87 1014.2
20260508034146 22 20 4.8 16.1 0.00 0.00 0.05 87 1014.6
20260508033648 23 3 3.2 8.0 0.00 0.00 0.05 87 1014.6
20260508033152 23 7 4.8 8.0 0.00 0.00 0.05 86 1014.6
20260508032646 23 52 4.8 11.3 0.00 0.00 0.05 85 1014.2
20260508032148 23 19 8.0 14.5 0.00 0.00 0.05 85 1014.2
20260508031646 23 42 8.0 16.1 0.00 0.00 0.05 85 1014.2
20260508031147 23 17 6.4 14.5 0.00 0.00 0.05 84 1014.2
20260508030647 23 353 8.0 14.5 0.00 0.00 0.05 83 1014.2
20260508030147 23 0 4.8 9.7 0.00 0.00 0.05 83 1014.2
20260508025648 23 24 6.4 14.5 0.00 0.00 0.05 83 1013.9
20260508025150 23 33 4.8 14.5 0.00 0.00 0.05 83 1013.9
20260508024646 23 26 3.2 8.0 0.00 0.00 0.05 83 1013.9
20260508024147 23 29 8.0 12.9 0.00 0.00 0.05 83 1013.9
20260508023647 23 38 8.0 14.5 0.00 0.00 0.05 83 1013.9
20260508023148 24 33 11.3 14.5 0.00 0.00 0.05 83 1014.2
20260508022331 24 5 3.2 11.3 0.00 0.00 0.05 83 1013.9
20260508021646 24 35 9.7 11.3 0.00 0.00 0.05 83 1013.9
20260508021146 24 19 8.0 12.9 0.00 0.00 0.05 82 1013.5
20260508020647 24 306 0.0 8.0 0.00 0.00 0.05 82 1013.9
20260508020148 24 16 3.2 9.7 0.00 0.00 0.05 81 1013.5
20260508015646 24 338 4.8 9.7 0.00 0.00 0.05 82 1013.9
20260508015146 24 28 4.8 12.9 0.00 0.00 0.05 82 1013.5
20260508014646 24 31 4.8 9.7 0.00 0.00 0.05 82 1013.2
20260508014147 24 347 4.8 8.0 0.00 0.00 0.05 82 1013.2
20260508013648 24 23 9.7 11.3 0.00 0.00 0.05 82 1013.2
20260508013147 24 35 4.8 8.0 0.00 0.00 0.05 82 1013.5
20260508012647 24 50 8.0 11.3 0.00 0.00 0.05 83 1013.5
20260508012146 24 2 4.8 6.4 0.00 0.00 0.05 84 1013.2
20260508011647 24 36 9.7 11.3 0.00 0.00 0.05 84 1013.2
20260508011147 24 38 6.4 12.9 0.00 0.00 0.05 84 1013.2
20260508010650 24 52 9.7 11.3 0.00 0.00 0.05 84 1012.9
20260508010147 24 36 3.2 9.7 0.00 0.00 0.05 84 1013.2
20260508005646 24 343 3.2 6.4 0.00 0.00 0.05 84 1013.2
20260508005147 24 28 6.4 11.3 0.00 0.00 0.05 85 1012.9
20260508004646 24 21 11.3 11.3 0.00 0.00 0.05 85 1013.2
20260508004146 24 20 4.8 11.3 0.00 0.00 0.05 85 1012.9
20260508003650 24 42 4.8 9.7 0.00 0.00 0.05 86 1012.9
20260508003146 24 35 6.4 9.7 0.00 0.00 0.05 85 1012.9
20260508002647 24 17 6.4 11.3 0.00 0.00 0.05 85 1012.9
20260508002146 24 350 3.2 8.0 0.00 0.00 0.05 85 1012.9
20260508001647 24 35 3.2 4.8 0.00 0.00 0.05 85 1012.9
20260508001146 24 46 3.2 8.0 0.00 0.00 0.05 84 1012.9
20260508000646 24 50 6.4 8.0 0.00 0.00 0.05 84 1012.9
20260508000147 24 29 4.8 9.7 0.00 0.00 0.05 83 1012.9
20260507235647 24 8 4.8 6.4 0.00 0.00 0.05 84 1012.5
20260507235146 24 354 0.0 6.4 0.00 0.00 0.05 84 1012.9
20260507234647 24 7 3.2 8.0 0.00 0.00 0.05 83 1012.9
20260507234146 24 48 4.8 11.3 0.00 0.00 0.05 83 1012.9
20260507233647 25 322 6.4 8.0 0.00 0.00 0.05 82 1012.9
20260507233148 24 338 4.8 9.7 0.00 0.00 0.05 83 1012.9
20260507232648 24 1 6.4 8.0 0.00 0.00 0.05 82 1012.9
20260507232147 25 357 3.2 11.3 0.00 0.00 0.05 82 1012.9
20260507231647 25 33 6.4 9.7 0.00 0.00 0.05 81 1012.9
20260507231147 25 338 6.4 9.7 0.00 0.00 0.05 81 1012.9
20260507230647 25 353 4.8 8.0 0.00 0.00 0.05 81 1012.9
20260507230147 25 3 4.8 9.7 0.00 0.00 0.05 81 1012.9
20260507225647 25 308 3.2 8.0 0.00 0.00 0.05 80 1012.9
20260507225147 25 331 9.7 11.3 0.00 0.00 0.05 80 1012.9
20260507224646 25 336 9.7 11.3 0.00 0.00 0.05 80 1012.9
20260507224146 25 305 3.2 9.7 0.00 0.00 0.05 79 1012.9
20260507223646 25 1 3.2 8.0 0.00 0.00 0.05 79 1012.9
20260507223147 25 36 6.4 11.3 0.00 0.00 0.05 78 1012.5
20260507222646 25 11 6.4 9.7 0.00 0.00 0.05 79 1012.5
20260507222146 25 14 3.2 9.7 0.00 0.00 0.05 80 1012.5
20260507221647 25 330 3.2 6.4 0.00 0.00 0.05 79 1012.5
20260507221146 25 352 3.2 4.8 0.00 0.00 0.05 80 1012.5
20260507220646 25 12 6.4 8.0 0.00 0.00 0.05 81 1012.9
20260507220147 25 307 6.4 9.7 0.00 0.00 0.05 80 1012.5
20260507215646 25 355 3.2 9.7 0.00 0.00 0.05 79 1012.5
20260507215148 25 354 4.8 8.0 0.00 0.00 0.05 80 1012.5
20260507214646 24 17 0.0 6.4 0.00 0.00 0.05 82 1012.2
20260507214147 23 312 1.6 8.0 0.00 0.00 0.05 82 1012.5
20260507213646 23 269 0.0 4.8 0.00 0.00 0.05 82 1012.9
20260507213147 24 340 3.2 8.0 0.00 0.00 0.05 82 1012.9
20260507212647 23 9 4.8 6.4 0.00 0.00 0.05 83 1012.2
20260507212150 23 32 0.0 6.4 0.00 0.00 0.05 83 1012.5
20260507211647 23 49 3.2 4.8 0.00 0.00 0.05 83 1012.9
20260507211146 23 332 1.6 4.8 0.00 0.00 0.05 83 1012.9
20260507210646 23 14 4.8 4.8 0.00 0.00 0.05 84 1012.5
20260507210147 23 38 4.8 6.4 0.00 0.00 0.05 84 1012.5
20260507205646 23 47 3.2 8.0 0.00 0.00 0.05 84 1012.5
20260507205147 23 62 1.6 4.8 0.00 0.00 0.05 85 1012.9
20260507204647 23 14 3.2 8.0 0.00 0.00 0.05 85 1012.9
20260507204147 22 39 3.2 11.3 0.00 0.00 0.05 86 1012.9
20260507203646 22 300 4.8 9.7 0.00 0.00 0.05 86 1012.9
20260507203146 22 40 4.8 12.9 0.00 0.00 0.05 86 1012.9
20260507202647 22 2 3.2 4.8 0.00 0.00 0.05 87 1012.9
20260507202147 22 309 4.8 8.0 0.00 0.00 0.05 87 1012.9
20260507201647 22 9 4.8 9.7 0.00 0.00 0.05 88 1012.9
20260507201146 22 343 4.8 12.9 0.00 0.00 0.05 87 1012.9
20260507200646 22 351 6.4 12.9 0.00 0.00 0.05 88 1012.9
20260507200147 22 305 4.8 9.7 0.00 0.00 0.05 88 1013.2
20260507195646 22 352 9.7 14.5 0.00 0.00 0.05 87 1012.9
20260507195146 22 39 8.0 8.0 0.00 0.00 0.05 86 1012.9
20260507194649 23 334 6.4 9.7 0.00 0.00 0.05 85 1012.9
20260507194146 23 285 4.8 8.0 0.00 0.00 0.05 86 1012.9
20260507193647 23 0 3.2 8.0 0.00 0.00 0.05 85 1012.9
20260507193147 23 57 8.0 9.7 0.00 0.00 0.05 85 1012.9
20260507192647 23 62 3.2 8.0 0.00 0.00 0.05 87 1013.2
20260507192146 22 12 3.2 11.3 0.00 0.00 0.05 87 1013.5
20260507191649 22 345 8.0 8.0 0.00 0.00 0.05 87 1013.2
20260507191146 22 338 6.4 8.0 0.00 0.00 0.05 87 1012.9
20260507190647 22 47 3.2 8.0 0.00 0.00 0.05 88 1013.5
20260507190146 22 2 4.8 9.7 0.00 0.00 0.05 88 1013.2
20260507185647 22 25 6.4 11.3 0.00 0.00 0.05 88 1013.2
20260507185147 22 331 8.0 12.9 0.00 0.00 0.05 88 1013.5
20260507184201 22 49 6.4 11.3 0.00 0.00 0.05 88 1013.5
20260507183649 22 7 6.4 9.7 0.00 0.00 0.05 88 1013.5
20260507183147 22 333 6.4 11.3 0.00 0.00 0.05 90 1013.5
20260507182649 22 32 4.8 14.5 0.00 0.00 0.05 91 1013.5
20260507182146 21 343 8.0 14.5 0.00 0.00 0.05 92 1013.5
20260507181646 21 12 4.8 11.3 0.00 0.00 0.05 93 1013.5
20260507181148 21 44 11.3 12.9 0.00 0.00 0.05 95 1013.9
20260507180648 21 357 4.8 14.5 0.00 0.00 0.05 94 1013.9
20260507180146 21 32 8.0 16.1 0.00 0.00 0.05 93 1013.9
20260507175646 21 352 1.6 11.3 0.00 0.00 0.05 93 1013.9
20260507175146 21 22 6.4 9.7 0.00 0.00 0.05 93 1013.9
20260507174647 21 357 9.7 11.3 0.00 0.00 0.05 94 1013.9
20260507174147 21 349 6.4 11.3 0.00 0.00 0.05 94 1013.9
20260507173647 21 350 6.4 11.3 0.00 0.00 0.05 95 1013.9
20260507173147 21 347 9.7 14.5 0.00 0.00 0.05 94 1013.9
20260507172647 21 27 3.2 14.5 0.00 0.00 0.05 95 1013.9
20260507172146 21 329 9.7 12.9 0.00 0.00 0.05 95 1013.9
20260507171647 21 12 9.7 16.1 0.00 0.00 0.05 95 1014.2
20260507171147 21 334 6.4 14.5 0.00 0.00 0.05 95 1014.2
20260507170647 21 354 9.7 12.9 0.00 0.00 0.05 95 1014.2
20260507170146 21 3 8.0 16.1 0.00 0.00 0.05 95 1014.2
20260507165646 21 354 11.3 14.5 0.00 0.00 0.05 94 1014.2
20260507165147 21 349 4.8 11.3 0.00 0.00 0.05 94 1014.2
20260507164647 21 323 8.0 12.9 0.00 0.00 0.05 94 1014.2
20260507164147 21 0 8.0 11.3 0.00 0.00 0.05 95 1014.2
20260507163647 21 328 4.8 11.3 0.00 0.00 0.05 95 1014.2
20260507163146 21 349 8.0 16.1 0.00 0.00 0.05 96 1014.2
20260507162646 21 336 3.2 9.7 0.00 0.00 0.05 96 1014.2
20260507162147 21 23 6.4 11.3 0.00 0.00 0.05 97 1014.2
20260507161646 21 347 4.8 9.7 0.00 0.00 0.05 97 1014.2
20260507161146 21 15 6.4 14.5 0.00 0.00 0.05 97 1013.9
20260507160646 21 42 4.8 9.7 0.00 0.00 0.05 98 1014.2
20260507160147 21 338 4.8 8.0 0.00 0.00 0.05 98 1014.2
20260507155646 21 29 3.2 11.3 0.00 0.00 0.05 98 1014.2
20260507155147 21 40 3.2 14.5 0.00 0.00 0.05 98 1014.2
20260507154646 21 5 4.8 17.7 0.00 0.00 0.05 99 1014.2
20260507154146 21 21 4.8 8.0 0.00 0.00 0.05 99 1014.2
20260507153647 21 312 9.7 11.3 0.00 0.00 0.05 99 1014.2
20260507153148 21 314 8.0 12.9 0.00 0.00 0.05 99 1014.2
20260507152648 21 355 4.8 12.9 0.00 0.00 0.05 99 1013.9
20260507152146 21 3 9.7 11.3 0.00 0.00 0.05 99 1014.2
20260507151646 21 1 9.7 14.5 0.00 0.00 0.05 99 1013.9
20260507151147 21 338 8.0 16.1 0.00 0.00 0.05 99 1014.2
20260507150646 21 358 4.8 16.1 0.00 0.00 0.05 99 1013.9
20260507150147 21 332 9.7 20.9 0.00 0.00 0.05 99 1013.9
20260507145647 22 350 4.8 12.9 0.00 0.00 0.05 99 1013.9
20260507145147 22 13 1.6 14.5 0.00 0.00 0.05 99 1013.9
20260507144646 22 336 11.3 12.9 0.00 0.00 0.05 99 1013.5
20260507144147 22 340 8.0 12.9 0.00 0.00 0.05 99 1013.5
20260507143647 22 359 6.4 14.5 0.00 0.00 0.05 99 1013.5
20260507143147 22 343 6.4 11.3 0.00 0.00 0.05 99 1013.5
20260507142647 22 338 6.4 11.3 0.00 0.00 0.05 99 1013.5
20260507142146 22 357 8.0 9.7 0.00 0.00 0.05 99 1013.5
20260507141647 22 339 8.0 12.9 0.05 0.00 0.05 99 1013.5
20260507141147 22 324 6.4 9.7 0.05 0.00 0.05 99 1013.5
20260507140650 22 311 3.2 11.3 0.13 0.00 0.05 99 1013.5
20260507140147 22 336 3.2 12.9 0.18 0.00 0.05 99 1013.5
20260507135647 22 300 8.0 14.5 0.13 0.00 0.03 99 1013.5
20260507135147 23 356 6.4 17.7 0.05 0.00 0.00 99 1013.2
20260507134648 23 342 6.4 16.1 0.00 0.00 0.00 98 1013.5
20260507134147 23 319 8.0 12.9 0.00 0.00 0.00 97 1013.5
20260507133646 25 329 6.4 17.7 0.00 0.00 0.00 97 1013.2
20260507133147 25 229 4.8 11.3 0.00 0.00 0.00 98 1013.2
20260507132647 25 190 6.4 12.9 0.00 0.00 0.00 97 1012.9
20260507132146 25 201 11.3 14.5 0.00 0.00 0.00 97 1012.9
20260507131648 25 220 11.3 11.3 0.00 0.00 0.00 97 1012.9
20260507131146 25 198 6.4 12.9 0.00 0.00 0.00 97 1013.2
20260507130647 25 212 8.0 11.3 0.00 0.00 0.00 97 1013.2
20260507130147 25 193 4.8 12.9 0.00 0.00 0.00 97 1012.9
20260507125648 25 210 8.0 9.7 0.00 0.00 0.00 97 1012.9
20260507125147 25 222 8.0 14.5 0.00 0.00 0.00 97 1012.9
20260507124647 25 218 9.7 11.3 0.00 0.00 0.00 97 1012.9
20260507124147 25 188 8.0 12.9 0.00 0.00 0.00 97 1012.5
20260507123647 25 179 9.7 17.7 0.00 0.00 0.00 97 1012.5
20260507123146 25 179 8.0 11.3 0.00 0.00 0.00 97 1012.5
20260507122646 25 170 4.8 14.5 0.00 0.00 0.00 97 1012.5
20260507122147 25 188 4.8 14.5 0.00 0.00 0.00 97 1012.5
20260507121649 25 165 4.8 9.7 0.00 0.00 0.00 97 1012.5
20260507121148 25 192 3.2 8.0 0.00 0.00 0.00 97 1012.5
20260507120646 25 186 11.3 12.9 0.00 0.00 0.00 97 1012.5
20260507120146 25 186 8.0 11.3 0.00 0.00 0.00 97 1012.5
20260507115647 25 201 6.4 12.9 0.00 0.00 0.00 97 1012.2
20260507115146 25 190 8.0 11.3 0.00 0.00 0.00 98 1011.9
20260507114646 25 193 8.0 11.3 0.00 0.00 0.00 98 1012.2
20260507114146 25 159 12.9 14.5 0.00 0.00 0.00 98 1011.9
20260507113647 25 178 12.9 16.1 0.00 0.00 0.00 98 1011.9
20260507113147 25 171 8.0 9.7 0.00 0.00 0.00 98 1011.9
20260507112646 25 179 8.0 12.9 0.00 0.00 0.00 97 1011.9
20260507112147 25 181 6.4 8.0 0.00 0.00 0.00 97 1011.9
20260507111648 25 160 9.7 11.3 0.00 0.00 0.00 97 1011.5
20260507111147 25 206 4.8 9.7 0.00 0.00 0.00 97 1011.5
20260507110646 25 198 6.4 9.7 0.00 0.00 0.00 97 1011.2
20260507110147 25 176 6.4 9.7 0.00 0.00 0.00 97 1011.2
20260507105646 25 179 4.8 9.7 0.00 0.00 0.00 97 1011.2
20260507105150 25 178 9.7 12.9 0.00 0.00 0.00 97 1011.5
20260507104646 25 175 8.0 11.3 0.00 0.00 0.00 96 1011.5
20260507104147 25 179 6.4 8.0 0.00 0.00 0.00 96 1011.2
20260507103646 25 185 6.4 8.0 0.00 0.00 0.00 96 1011.2
20260507103148 25 195 3.2 8.0 0.00 0.00 0.00 96 1011.2
20260507102646 25 168 8.0 11.3 0.00 0.00 0.00 97 1011.2
20260507102147 25 162 8.0 11.3 0.00 0.00 0.00 96 1011.2
20260507101646 25 185 8.0 8.0 0.00 0.00 0.00 96 1011.2
20260507101147 25 161 6.4 8.0 0.00 0.00 0.00 96 1011.2
20260507100647 25 173 8.0 8.0 0.00 0.00 0.00 96 1010.8
20260507100147 25 196 3.2 8.0 0.00 0.00 0.00 96 1011.2
20260507095646 25 173 4.8 9.7 0.00 0.00 0.00 96 1011.2
20260507095146 25 151 1.6 6.4 0.00 0.00 0.00 96 1010.8
20260507094646 25 181 4.8 8.0 0.00 0.00 0.00 95 1010.8
20260507094147 25 171 9.7 9.7 0.00 0.00 0.00 95 1010.8
20260507093646 25 189 6.4 9.7 0.00 0.00 0.00 95 1010.8
20260507093146 25 218 3.2 6.4 0.00 0.00 0.00 95 1010.8
20260507092648 25 183 4.8 6.4 0.00 0.00 0.00 96 1010.8
20260507092146 25 196 3.2 6.4 0.00 0.00 0.00 96 1011.2
20260507091647 25 189 3.2 8.0 0.00 0.00 0.00 96 1010.8
20260507091147 25 194 3.2 8.0 0.00 0.00 0.00 95 1010.8
20260507090647 25 207 3.2 6.4 0.00 0.00 0.00 95 1011.2
20260507090147 25 253 6.4 6.4 0.00 0.00 0.00 95 1011.2
20260507085647 25 246 4.8 8.0 0.00 0.00 0.00 95 1010.8
20260507085147 25 195 4.8 8.0 0.00 0.00 0.00 95 1010.8
20260507084648 25 202 6.4 8.0 0.00 0.00 0.00 95 1010.8
20260507084147 25 195 6.4 8.0 0.00 0.00 0.00 95 1010.8
20260507083646 25 229 8.0 11.3 0.00 0.00 0.00 95 1010.5
20260507083147 25 220 3.2 11.3 0.00 0.00 0.00 95 1010.8
20260507082647 25 195 6.4 9.7 0.00 0.00 0.00 95 1010.5
20260507082147 25 192 4.8 8.0 0.00 0.00 0.00 95 1010.8
20260507081647 25 211 6.4 9.7 0.00 0.00 0.00 95 1010.8